FW8702 Weather Reports


time (UTC)temp
C
wind
direction
speed
KPH
gust
KPH
rain 1hr
cm
rain 24hr
cm
rain mn
cm
humidity
%
barometer
mb
20260906190012 23 304 0.0 0.0 0.00 0.00 0.00 79 1023.3
20260906184537 23 304 0.0 3.2 0.00 0.00 0.00 78 1023.1
20260906183043 23 312 0.0 3.2 0.00 0.00 0.00 77 1022.9
20260906181548 25 281 1.6 3.2 0.00 0.00 0.00 77 1022.8
20260906180103 25 269 0.0 1.6 0.00 0.00 0.00 75 1022.7
20260906174538 26 269 0.0 3.2 0.00 0.00 0.00 73 1022.7
20260906173056 27 231 0.0 0.0 0.00 0.00 0.00 70 1022.6
20260906171526 28 228 0.0 1.6 0.00 0.00 0.00 63 1022.5
20260906170108 30 171 0.0 1.6 0.00 0.00 0.00 59 1022.4
20260906164519 30 229 0.0 3.2 0.00 0.00 0.00 52 1022.4
20260906163016 31 229 0.0 1.6 0.00 0.00 0.00 53 1022.3
20260906161520 30 229 1.6 4.8 0.00 0.00 0.00 53 1022.4
20260906160059 30 202 0.0 4.8 0.00 0.00 0.00 54 1022.3
20260906154520 30 119 0.0 3.2 0.00 0.00 0.00 55 1022.2
20260906153024 30 139 0.0 3.2 0.00 0.00 0.00 54 1022.2
20260906151517 30 204 0.0 4.8 0.00 0.00 0.00 54 1022.3
20260906150028 30 203 1.6 8.0 0.00 0.00 0.00 56 1022.4
20260906144525 30 272 0.0 6.4 0.00 0.00 0.00 54 1022.5
20260906143058 31 217 1.6 6.4 0.00 0.00 0.00 54 1022.5
20260906141527 30 229 1.6 9.7 0.00 0.00 0.00 53 1022.6
20260906140054 30 237 1.6 9.7 0.00 0.00 0.00 53 1022.6
20260906134542 30 183 1.6 9.7 0.00 0.00 0.00 54 1022.6
20260906133005 30 204 0.0 4.8 0.00 0.00 0.00 54 1022.7
20260906131510 30 210 1.6 9.7 0.00 0.00 0.00 55 1023.0
20260906130006 30 225 4.8 8.0 0.00 0.00 0.00 54 1023.0
20260906124535 30 248 1.6 11.3 0.00 0.00 0.00 54 1023.2
20260906123040 30 213 0.0 6.4 0.00 0.00 0.00 53 1023.2
20260906121607 30 160 0.0 6.4 0.00 0.00 0.00 54 1023.3
20260906120013 30 222 0.0 6.4 0.00 0.00 0.00 54 1023.3
20260906114549 30 202 0.0 6.4 0.00 0.00 0.00 53 1023.4
20260906113017 28 219 4.8 11.3 0.00 0.00 0.00 56 1023.5
20260906111540 28 289 4.8 12.9 0.00 0.00 0.00 56 1023.5
20260906110025 28 213 1.6 9.7 0.00 0.00 0.00 56 1023.7
20260906104534 28 221 4.8 11.3 0.00 0.00 0.00 52 1023.7
20260906103026 28 13 0.0 6.4 0.00 0.00 0.00 54 1023.8
20260906101519 27 295 1.6 6.4 0.00 0.00 0.00 56 1024.1
20260906100037 27 274 3.2 8.0 0.00 0.00 0.00 54 1024.2
20260906094538 26 237 3.2 8.0 0.00 0.00 0.00 56 1024.2
20260906093044 26 277 3.2 6.4 0.00 0.00 0.00 56 1024.4
20260906091519 26 279 1.6 6.4 0.00 0.00 0.00 58 1024.5
20260906090016 27 272 3.2 6.4 0.00 0.00 0.00 58 1024.5
20260906084559 26 267 0.0 3.2 0.00 0.00 0.00 57 1024.3
20260906083020 26 267 0.0 3.2 0.00 0.00 0.00 60 1024.4
20260906081537 25 280 4.8 8.0 0.00 0.00 0.00 62 1024.4
20260906080040 25 196 0.0 4.8 0.00 0.00 0.00 60 1024.2
20260906074601 25 273 1.6 4.8 0.00 0.00 0.00 60 1024.1
20260906073101 25 289 1.6 4.8 0.00 0.00 0.00 62 1024.0
20260906071513 23 269 1.6 4.8 0.00 0.00 0.00 65 1023.9
20260906070057 23 8 0.0 3.2 0.00 0.00 0.00 68 1024.0
20260906064530 22 287 0.0 3.2 0.00 0.00 0.00 71 1023.7
20260906063002 21 344 0.0 4.8 0.00 0.00 0.00 75 1023.7
20260906061543 20 326 0.0 4.8 0.00 0.00 0.00 78 1023.6
20260906060047 20 295 0.0 3.2 0.00 0.00 0.00 75 1023.5
20260906054517 19 282 0.0 3.2 0.00 0.00 0.00 76 1023.1
20260906053013 20 281 0.0 1.6 0.00 0.00 0.00 74 1023.0
20260906051503 20 332 4.8 6.4 0.00 0.00 0.00 76 1022.8
20260906050048 18 276 0.0 3.2 0.00 0.00 0.00 80 1022.6
20260906044512 18 276 1.6 6.4 0.00 0.00 0.00 79 1022.4
20260906043016 18 279 3.2 4.8 0.00 0.00 0.00 78 1022.5
20260906041515 18 266 1.6 4.8 0.00 0.00 0.00 77 1022.3
20260906040032 18 314 0.0 4.8 0.00 0.00 0.00 75 1022.3
20260906034528 19 58 0.0 3.2 0.00 0.00 0.00 74 1022.3
20260906033038 20 285 0.0 3.2 0.00 0.00 0.00 71 1022.2
20260906031526 20 335 0.0 3.2 0.00 0.00 0.00 69 1022.0
20260906030045 20 266 1.6 4.8 0.00 0.00 0.00 71 1021.8
20260906024530 18 271 0.0 3.2 0.00 0.00 0.00 76 1021.7
20260906023004 18 277 0.0 4.8 0.00 0.00 0.00 78 1021.6
20260906021544 18 339 0.0 1.6 0.00 0.00 0.00 78 1021.6
20260906020011 19 272 0.0 4.8 0.00 0.00 0.00 75 1021.4
20260906014604 20 285 0.0 3.2 0.00 0.00 0.00 72 1021.4
20260906013051 21 342 1.6 4.8 0.00 0.00 0.00 69 1021.3
20260906011546 21 88 3.2 6.4 0.00 0.00 0.00 68 1021.2
20260906010007 22 55 0.0 8.0 0.00 0.00 0.00 69 1021.0
20260906004537 22 252 1.6 4.8 0.00 0.00 0.00 69 1020.9
20260906003002 22 221 3.2 11.3 0.00 0.00 0.00 71 1020.8
20260906001501 21 342 0.0 6.4 0.00 0.00 0.00 73 1020.8
20260905234540 22 22 0.0 4.8 0.00 0.00 0.00 73 1020.8
20260905233026 22 233 1.6 6.4 0.00 0.00 0.00 72 1020.9
20260905231501 23 308 1.6 12.9 0.00 0.00 0.00 70 1021.0
20260905230100 22 236 4.8 6.4 0.00 0.00 0.00 73 1020.9
20260905224557 21 230 1.6 9.7 0.00 0.00 0.00 76 1020.8
20260905223009 21 283 1.6 9.7 0.00 0.00 0.00 79 1020.8
20260905221540 21 288 1.6 4.8 0.00 0.00 0.00 80 1020.5
20260905220025 21 285 0.0 3.2 0.00 0.00 0.00 79 1020.4
20260905214555 21 85 0.0 3.2 0.00 0.00 0.00 78 1020.4
20260905213033 22 283 0.0 6.4 0.00 0.00 0.00 77 1020.3
20260905211603 22 283 1.6 4.8 0.00 0.00 0.00 78 1020.1
20260905210003 22 337 1.6 4.8 0.00 0.00 0.00 79 1020.0
20260905204539 22 337 3.2 6.4 0.00 0.00 0.00 79 1019.9
20260905203014 22 8 0.0 3.2 0.00 0.00 0.00 79 1019.9
20260905201522 22 354 0.0 9.7 0.00 0.00 0.00 80 1019.6
20260905200016 22 324 0.0 3.2 0.00 0.00 0.00 80 1019.6
20260905194537 22 304 0.0 1.6 0.00 0.00 0.00 80 1019.4
20260905193007 22 320 0.0 4.8 0.00 0.00 0.00 80 1019.2
20260905191551 22 283 0.0 0.0 0.00 0.00 0.00 81 1019.0